Location: Leiter
(44.7178°N, 106.2687°W)
Time: 18:11:17
(UTC+00:00)

CUBESAT XI-V - Pass Details

Date: 03 July 2022
Orbit: 668 x 690 km, 98.1° (Epoch: 18 August)

Event Time Altitude Azimuth Distance (km) Brightness Sun altitude
Exits shadow 07:26:07 - 107° (ESE) 2,304 ? -22.2°
Reaches altitude 10° 07:26:51 10° 100° (E) 2,105 ? -22.2°
Maximum altitude 07:29:43 17° 61° (ENE) 1,706 ? -22.2°
Drops below altitude 10° 07:32:34 10° 23° (NNE) 2,108 ? -22.1°
Sets 07:35:30 0° 3° (N) 3,024 ? -22.1°
